TimeMDT,TemperatureF,Dew PointF,Humidity,Sea Level PressureIn,VisibilityMPH,Wind Direction,Wind SpeedMPH,Gust SpeedMPH,PrecipitationIn,Events,Conditions,WindDirDegrees,DateUTC
12:15 AM,32.0,32.0,100,30.26,10.0,WNW,6.9,-,N/A,,Clear,290,2013-09-20 06:15:00
12:35 AM,32.0,32.0,100,30.26,10.0,NW,5.8,-,N/A,,Clear,310,2013-09-20 06:35:00
12:55 AM,32.0,32.0,100,30.26,10.0,NW,5.8,-,N/A,,Clear,310,2013-09-20 06:55:00
1:15 AM,32.0,30.2,93,30.26,10.0,NW,4.6,-,N/A,,Clear,310,2013-09-20 07:15:00
1:35 AM,32.0,30.2,93,30.26,10.0,NW,5.8,-,N/A,,Clear,310,2013-09-20 07:35:00
1:55 AM,32.0,30.2,93,30.27,10.0,West,4.6,-,N/A,,Clear,280,2013-09-20 07:55:00
2:15 AM,32.0,30.2,93,30.27,10.0,West,4.6,-,N/A,,Clear,260,2013-09-20 08:15:00
2:35 AM,32.0,30.2,93,30.27,10.0,West,6.9,-,N/A,,Clear,280,2013-09-20 08:35:00
2:55 AM,32.0,30.2,93,30.27,10.0,West,3.5,-,N/A,,Clear,270,2013-09-20 08:55:00
3:15 AM,30.2,30.2,100,30.26,10.0,West,4.6,-,N/A,,Clear,280,2013-09-20 09:15:00
3:35 AM,30.2,30.2,100,30.27,10.0,West,4.6,-,N/A,,Clear,270,2013-09-20 09:35:00
3:55 AM,30.2,28.4,93,30.26,10.0,WNW,6.9,-,N/A,,Clear,300,2013-09-20 09:55:00
4:15 AM,30.2,28.4,93,30.26,10.0,WNW,4.6,-,N/A,,Clear,290,2013-09-20 10:15:00
4:35 AM,28.4,28.4,100,30.26,10.0,WNW,5.8,-,N/A,,Clear,300,2013-09-20 10:35:00
4:55 AM,28.4,28.4,100,30.26,10.0,WNW,6.9,-,N/A,,Clear,290,2013-09-20 10:55:00
5:15 AM,28.4,28.4,100,30.26,10.0,West,5.8,-,N/A,,Clear,280,2013-09-20 11:15:00
5:35 AM,28.4,28.4,100,30.26,10.0,West,8.1,-,N/A,,Clear,280,2013-09-20 11:35:00
5:55 AM,28.4,28.4,100,30.26,10.0,WNW,8.1,-,N/A,,Clear,290,2013-09-20 11:55:00
6:15 AM,28.4,28.4,100,30.26,10.0,WNW,8.1,-,N/A,,Clear,290,2013-09-20 12:15:00
6:35 AM,28.4,26.6,93,30.26,10.0,West,6.9,-,N/A,,Clear,280,2013-09-20 12:35:00
6:55 AM,28.4,28.4,100,30.26,10.0,West,5.8,-,N/A,,Clear,280,2013-09-20 12:55:00
7:15 AM,28.4,28.4,100,30.26,10.0,WNW,6.9,-,N/A,,Clear,290,2013-09-20 13:15:00
7:35 AM,30.2,28.4,93,30.26,10.0,WNW,4.6,-,N/A,,Clear,290,2013-09-20 13:35:00
7:55 AM,32.0,30.2,93,30.27,10.0,NW,5.8,-,N/A,,Clear,310,2013-09-20 13:55:00
8:15 AM,32.0,30.2,93,30.27,10.0,WNW,8.1,-,N/A,,Clear,300,2013-09-20 14:15:00
8:35 AM,33.8,30.2,87,30.27,10.0,WNW,9.2,-,N/A,,Clear,290,2013-09-20 14:35:00
8:55 AM,35.6,30.2,81,30.27,10.0,WNW,5.8,-,N/A,,Clear,300,2013-09-20 14:55:00
9:15 AM,37.4,32.0,81,30.27,10.0,Calm,Calm,-,N/A,,Clear,0,2013-09-20 15:15:00
9:35 AM,42.8,32.0,66,30.27,10.0,WNW,3.5,-,N/A,,Clear,290,2013-09-20 15:35:00
9:55 AM,44.6,32.0,61,30.27,10.0,WNW,3.5,-,N/A,,Clear,300,2013-09-20 15:55:00
10:15 AM,48.2,32.0,54,30.27,10.0,Calm,Calm,-,N/A,,Clear,0,2013-09-20 16:15:00
10:35 AM,50.0,30.2,47,30.26,10.0,Calm,Calm,-,N/A,,Clear,0,2013-09-20 16:35:00
10:55 AM,53.6,26.6,35,30.25,10.0,Calm,Calm,-,N/A,,Clear,0,2013-09-20 16:55:00
11:15 AM,53.6,21.2,28,30.24,10.0,Calm,Calm,-,N/A,,Clear,0,2013-09-20 17:15:00
11:35 AM,55.4,23.0,29,30.24,10.0,Calm,Calm,-,N/A,,Clear,0,2013-09-20 17:35:00
11:55 AM,55.4,23.0,29,30.23,10.0,Calm,Calm,-,N/A,,Clear,0,2013-09-20 17:55:00
12:15 PM,57.2,23.0,27,30.22,10.0,Calm,Calm,-,N/A,,Clear,0,2013-09-20 18:15:00
12:35 PM,59.0,23.0,25,30.21,10.0,Calm,Calm,-,N/A,,Clear,0,2013-09-20 18:35:00
12:55 PM,59.0,23.0,25,30.21,10.0,WSW,5.8,-,N/A,,Clear,240,2013-09-20 18:55:00
1:15 PM,59.0,21.2,23,30.21,10.0,South,3.5,-,N/A,,Clear,170,2013-09-20 19:15:00
1:35 PM,60.8,19.4,20,30.20,10.0,Calm,Calm,-,N/A,,Clear,0,2013-09-20 19:35:00
1:55 PM,60.8,21.2,22,30.19,10.0,Calm,Calm,-,N/A,,Clear,0,2013-09-20 19:55:00
2:15 PM,62.6,19.4,19,30.18,10.0,ESE,4.6,-,N/A,,Clear,110,2013-09-20 20:15:00
2:35 PM,62.6,21.2,20,30.18,10.0,Calm,Calm,-,N/A,,Clear,0,2013-09-20 20:35:00
2:55 PM,62.6,17.6,18,30.17,10.0,Calm,Calm,-,N/A,,Clear,0,2013-09-20 20:55:00
3:15 PM,62.6,17.6,18,30.16,10.0,SE,3.5,-,N/A,,Clear,130,2013-09-20 21:15:00
3:35 PM,62.6,19.4,19,30.16,10.0,SSW,4.6,-,N/A,,Clear,200,2013-09-20 21:35:00
3:55 PM,64.4,19.4,18,30.14,10.0,SSE,4.6,-,N/A,,Clear,160,2013-09-20 21:55:00
4:15 PM,64.4,19.4,18,30.14,10.0,ESE,4.6,-,N/A,,Clear,110,2013-09-20 22:15:00
4:35 PM,64.4,19.4,18,30.13,10.0,Calm,Calm,-,N/A,,Clear,0,2013-09-20 22:35:00
4:55 PM,64.4,21.2,19,30.13,10.0,East,4.6,-,N/A,,Clear,80,2013-09-20 22:55:00
5:15 PM,64.4,21.2,19,30.13,10.0,East,3.5,-,N/A,,Clear,80,2013-09-20 23:15:00
5:35 PM,64.4,21.2,19,30.13,7.0,East,4.6,-,N/A,,Clear,90,2013-09-20 23:35:00
5:55 PM,64.4,21.2,19,30.13,10.0,ENE,3.5,-,N/A,,Clear,70,2013-09-20 23:55:00
6:15 PM,64.4,23.0,21,30.13,10.0,ESE,4.6,-,N/A,,Clear,120,2013-09-21 00:15:00
6:35 PM,62.6,23.0,22,30.11,10.0,East,3.5,-,N/A,,Clear,100,2013-09-21 00:35:00
6:55 PM,60.8,28.4,29,30.11,10.0,East,4.6,-,N/A,,Clear,90,2013-09-21 00:55:00
7:15 PM,59.0,30.2,34,30.11,10.0,East,3.5,-,N/A,,Clear,80,2013-09-21 01:15:00
7:35 PM,55.4,32.0,41,30.11,10.0,Calm,Calm,-,N/A,,Clear,0,2013-09-21 01:35:00
7:55 PM,51.8,32.0,47,30.11,10.0,Calm,Calm,-,N/A,,Clear,0,2013-09-21 01:55:00
8:15 PM,53.6,32.0,44,30.11,10.0,Calm,Calm,-,N/A,,Clear,0,2013-09-21 02:15:00
8:35 PM,50.0,32.0,50,30.12,10.0,Calm,Calm,-,N/A,,Clear,0,2013-09-21 02:35:00
8:55 PM,50.0,32.0,50,30.13,10.0,Calm,Calm,-,N/A,,Clear,0,2013-09-21 02:55:00
9:15 PM,44.6,32.0,61,30.13,10.0,Calm,Calm,-,N/A,,Clear,0,2013-09-21 03:15:00
9:35 PM,44.6,32.0,61,30.13,10.0,Calm,Calm,-,N/A,,Clear,0,2013-09-21 03:35:00
9:55 PM,44.6,32.0,61,30.13,10.0,Calm,Calm,-,N/A,,Clear,0,2013-09-21 03:55:00
10:15 PM,39.2,32.0,75,30.13,10.0,NW,4.6,-,N/A,,Clear,310,2013-09-21 04:15:00
10:35 PM,39.2,33.8,81,30.13,10.0,West,4.6,-,N/A,,Clear,280,2013-09-21 04:35:00
10:55 PM,37.4,33.8,87,30.13,10.0,WNW,3.5,-,N/A,,Clear,300,2013-09-21 04:55:00
11:15 PM,37.4,33.8,87,30.13,10.0,Calm,Calm,-,N/A,,Clear,0,2013-09-21 05:15:00
11:35 PM,35.6,33.8,93,30.13,10.0,WNW,4.6,-,N/A,,Clear,290,2013-09-21 05:35:00
11:55 PM,35.6,33.8,93,30.13,10.0,WNW,4.6,-,N/A,,Clear,290,2013-09-21 05:55:00